Location: Newark
(6.1731°S, 35.7419°E)
Time: 01:12:49
(UTC+00:00)

Altair - Pass Details

Date: 27 February 2020
Orbit: 1502 x 1682 km, 47.2° (Epoch: 28 March)

Event Time Altitude Azimuth Distance (km) Brightness Sun altitude
Rises 19:31:26 0° 253° (WSW) 4,639 10.6 -52.6°
Reaches altitude 10° 19:35:43 10° 270° (W) 3,648 9.8 -53.6°
Enters shadow 19:38:57 16° 290° (WNW) 3,162 9.3 -54.3°
